Terminal Aerodrome Forecast
Issued by NWS

Home | Current Version | Previous Version | Text Only | Print | Product List | Glossary Off
Versions: 1 2 3 4 5 6 7 8 9 10 11 12

419
FTUS43 KOAX 132329
TAFCDR
TAF
KCDR 132329Z 1400/1424 24007KT P6SM SCT080
     FM140200 VRB03KT P6SM BKN080=

USA.gov is the U.S. government's official web portal to all federal, state and local government web resources and services.